Airfield :
LOGIN :

Register | Disclaimer

   EN    FR    IT 

 










Legend :    VFR   Marginal VFR   IFR   Intensive IFR   Very Intensive IFR
Visi :
Ceiling :
>= 8 km
>= 3000ft
5 to 8 km
1000 to 3000 ft
1500m to 5 km
500 to 1000 ft
800 to 1500m
200 to 500 ft
< 800m
< 200 ft
Symbols :   Thunderstorms  Fog  Heavy snow  Heavy precipitations  Wind > 20 kt
SIGMETs :     Misc.  Thunderstorms  Icing  Turbulence  Mountain Waves  Volcanic Ashes







- Airport Elevation : 265 ft


ETSH - Holzdorf AB

CURRENT METAR :
  • 101220Z 27015G30KT 9999 FEW020 BKN025 06/00 Q1011 BLU BLU TEMPO GRN

EXPIRED METARs :
  • 101120Z 28017G28KT 9999 BKN020 BKN080 05/00 Q1012 WHT BLU TEMPO GRN
  • 101020Z 27018G30KT 9999 BKN018 BKN060 05/01 Q1012 WHT WHT TEMPO GRN

TAF TAF ETSH
Valid from the 10 at 12:00 until the 10 at 21:00 UTC


101124Z 1012/1021 27015G25KT 9999 NSW BKN025
TEMPO 1012/1021 29020G30KT 4000 SHRA SCT007 BKN015CB
No reported NOTAMs for that airfield.



MET'MAP, your aeronautical weather chart ! - Copyright ORBIFLY December 2007 - Disclaimer

ORBIFLY MET'MAP TEAM :

Programming & Development : Alexandra Zaïnal
Concept & Development : Baudouin d'Aumeries
Co-Development & Prog : Marc-Olivier Méhu
Technical & hardware support : Manuel Goepfert

Contact : metmap@orbifly.com




SOURCES & CREDITS :

   NOAA